Simultaneous Nadir Overpasses (SNOs) Predictions

Prediction of SNOs between GOES-16 and TERRA Satellite Orbit:

Table of predicted SNOs for the next 14.0 days since TLE Epoch: 3/30/2024
Index Date Time (GOES-16) GOES-16 Lat,Lon TERRA Lat,Lon Distance(km) Time Diff (sec)
1 03/30/2024 14:58:02 0.04, -75.23 0.37, -76.88 187.36 80
2 04/01/2024 14:43:37 0.04, -75.23 -0.45, -72.75 281.05 80
3 04/02/2024 03:03:45 -0.04, -75.21 -0.58, -77.65 277.37 80
4 04/04/2024 02:44:01 -0.03, -75.22 0.35, -73.54 191.80 80
5 04/04/2024 15:04:01 0.03, -75.25 0.69, -78.40 358.52 80
6 04/06/2024 14:49:35 0.03, -75.27 -0.15, -74.27 112.10 80
7 04/07/2024 03:09:42 -0.02, -75.25 -0.86, -79.17 445.62 80
8 04/09/2024 02:49:56 -0.03, -75.28 0.02, -75.05 26.05 80
9 04/11/2024 02:32:50 -0.02, -75.31 0.87, -70.92 498.24 80
10 04/11/2024 14:52:49 0.02, -75.34 0.13, -75.78 51.39 80
